Location: Berkeley
(37.8716°N, 122.2727°W)
Time: 09:21:19
(UTC-07:00)

ACS3 Solar Sail - Visible Passes

Search period start: 10 May 2026 00:00
Search period end: 20 May 2026 00:00
Orbit: 890 x 951 km, 97.2° (Epoch: 8 May)

Date Brightness Start Highest point End Pass type
(mag) Time Alt. Az. Time Alt. Az. Time Alt. Az.
10 May 4.0 00:29:18 10° ENE 00:30:27 12° ENE 00:30:27 12° ENE visible
10 May 1.9 02:08:47 10° N 02:13:56 67° N 02:13:56 67° N visible
10 May 3.8 03:54:19 10° NW 03:56:09 11° WNW 03:57:26 11° WNW visible
11 May 3.8 00:37:07 10° NE 00:39:18 15° ENE 00:39:18 15° ENE visible
11 May 1.9 02:17:29 10° N 02:22:47 63° NW 02:22:47 63° NW visible
12 May 3.6 00:45:14 10° NE 00:48:08 18° ENE 00:48:08 18° ENE visible
12 May 2.1 02:26:13 10° N 02:31:38 55° NW 02:31:38 55° NW visible
13 May 3.4 00:53:29 10° NE 00:56:59 22° ENE 00:56:59 22° ENE visible
13 May 2.2 02:35:01 10° N 02:40:29 47° WNW 02:40:29 47° WNW visible
14 May 3.2 01:01:52 10° NE 01:05:50 27° ENE 01:05:50 27° ENE visible
14 May 2.5 02:43:49 10° N 02:49:19 39° WNW 02:49:19 39° WNW visible
15 May 2.9 01:10:18 10° NNE 01:14:41 32° ENE 01:14:41 32° ENE visible
15 May 2.7 02:52:41 10° N 02:57:57 33° WNW 02:58:10 33° WNW visible
16 May 2.7 01:18:48 10° NNE 01:23:32 39° ENE 01:23:32 39° ENE visible
16 May 2.9 03:01:34 10° NNW 03:06:32 28° WNW 03:07:01 27° WNW visible
17 May 2.4 01:27:22 10° NNE 01:32:23 47° ENE 01:32:23 47° ENE visible
17 May 3.1 03:10:32 10° NNW 03:15:08 23° WNW 03:15:52 23° WNW visible
18 May 2.1 01:35:57 10° NNE 01:41:13 57° ENE 01:41:13 57° ENE visible
18 May 3.3 03:19:35 10° NNW 03:23:41 20° WNW 03:24:43 19° WNW visible
19 May 1.9 01:44:36 10° NNE 01:50:04 68° ENE 01:50:04 68° ENE visible
19 May 3.5 03:28:43 10° NNW 03:32:15 16° WNW 03:33:34 15° WNW visible
